This demonstration page uses our WeatherBlox Daily Observations layout. Learn more.

38.89511, -77.03637

Hourly Observations for July 13, 2017

Temp ( °F °C ) Dew Point ( °F °C ) Humidity (%) Winds ( mph kmh ) Pressure ( in mb ) Visibility ( mi km ) Precip ( " mm )
12:52 am 00:52 Mostly Cloudy 83 28.3 75 23.9 77 77 S 6 9 30.03 1017 10 16.09344 0 0
1:52 am 01:52 Cloudy 83 28.3 76 24.4 79 79 S 8 13 30.03 1017 10 16.09344 0 0
2:52 am 02:52 Mostly Cloudy 81 27.2 77 25 88 88 S 8 13 30 1016 10 16.09344 0 0
3:09 am 03:09 Mostly Cloudy 81 27.2 76 24.4 85 85 S 5 7 30.03 1017 10 16.09344 0 0
3:52 am 03:52 Mostly Cloudy 81 27.2 74 23.3 79 79 SW 8 13 30.03 1017 10 16.09344 0 0
4:52 am 04:52 Partly Cloudy 80 26.7 73 22.8 79 79 SSW 5 7 30.03 1017 10 16.09344 0 0
5:52 am 05:52 Partly Cloudy 79 26.1 73 22.8 82 82 SSW 6 9 30.03 1017 10 16.09344 0 0
6:52 am 06:52 Partly Cloudy 80 26.7 73 22.8 79 79 SSW 7 11 30.03 1017 10 16.09344 0 0
7:52 am 07:52 Partly Cloudy 82 27.8 73 22.8 74 74 S 5 7 30.03 1017 10 16.09344 0 0
8:52 am 08:52 Partly Cloudy 84 28.9 75 23.9 74 74 S 9 15 30.06 1018 10 16.09344 0 0
9:52 am 09:52 Partly Cloudy 87 30.6 76 24.4 70 70 S 9 15 30.03 1017 10 16.09344 0 0
10:52 am 10:52 Mostly Cloudy 89 31.7 76 24.4 65 65 S 9 15 30.03 1017 10 16.09344 0 0
11:52 am 11:52 Cloudy 94 34.4 71 21.7 48 48 WSW 13 20 30.03 1017 10 16.09344 0 0
12:52 pm 12:52 Cloudy 93 33.9 72 22.2 50 50 WNW 10 17 30.03 1017 10 16.09344 0 0
1:52 pm 13:52 Cloudy 95 35 72 22.2 47 47 W 9 15 30.03 1017 10 16.09344 0 0
2:52 pm 14:52 Mostly Cloudy 95 35 74 23.3 51 51 S 9 15 30 1016 10 16.09344 0 0
3:52 pm 15:52 Cloudy 94 34.4 74 23.3 52 52 SSW 15 24 29.97 1015 10 16.09344 0 0
4:52 pm 16:52 Mostly Cloudy 94 34.4 75 23.9 54 54 SW 14 22 29.97 1015 10 16.09344 0 0
5:52 pm 17:52 Mostly Cloudy 95 35 73 22.8 49 49 WSW 14 22 29.97 1015 10 16.09344 0 0
6:52 pm 18:52 Mostly Cloudy 94 34.4 71 21.7 48 48 W 12 19 29.97 1015 10 16.09344 0 0
7:52 pm 19:52 Mostly Cloudy 92 33.3 73 22.8 54 54 WSW 9 15 29.97 1015 10 16.09344 0 0
8:52 pm 20:52 Mostly Cloudy 90 32.2 73 22.8 58 58 SW 7 11 29.97 1015 10 16.09344 0 0
9:52 pm 21:52 Mostly Cloudy 89 31.7 73 22.8 59 59 NW 6 9 30 1016 10 16.09344 0 0
10:52 pm 22:52 Mostly Cloudy 87 30.6 72 22.2 61 61 N 7 11 30 1016 10 16.09344 0 0
11:52 pm 23:52 Partly Cloudy 85 29.4 73 22.8 68 68 N 6 9 30 1016 10 16.09344 0 0

Powered by AerisWeather